Total_Precipitation_Accumulation
3.66 3.39 3.11 2.40 2.16 2.14 1.90 1.94 1.73 1.60 1.46 1.18 1.04 1.14 1.58 1.96 2.16 2.73 2.69 2.26 2.93 3.19 1.41 1.42 1.57 1.26 1.21 1.13 1.28 1.47 1.55 1.58 1.77 1.97 1.66 1.12 0.75 0.39 0.38 0.31 1.08 1.62 1.78 1.46 1.58 1.90 1.15 0.27 0.43 0.94 1.03 0.60 0.77 1.28
3.47 3.58 3.31 2.36 2.24 2.18 2.18 2.12 1.70 1.54 1.45 1.09 0.92 1.02 1.19 1.56 2.04 2.81 2.77 2.03 2.39 3.86 2.17 1.12 1.09 0.85 0.70 0.65 1.04 1.23 1.30 1.14 1.56 1.92 1.67 1.21 0.90 0.69 0.44 0.53 0.94 1.41 1.35 1.39 1.09 0.88 0.51 0.38 0.65 0.83 0.71 0.76 0.87 0.77
3.06 3.32 3.02 2.11 1.87 1.95 2.03 1.99 1.61 1.48 1.47 1.13 1.00 0.97 1.14 1.40 1.95 2.68 2.56 2.38 3.49 4.91 3.09 1.37 0.90 0.66 0.63 0.43 0.63 1.87 1.24 0.88 1.03 1.31 1.86 1.56 1.14 0.60 0.64 0.59 0.74 0.99 1.01 1.57 1.17 0.67 0.37 0.54 0.41 0.54 0.80 0.73 0.46 0.43
2.84 3.31 2.73 1.84 1.73 2.04 1.95 1.89 1.51 1.60 1.55 1.29 1.11 1.01 1.09 1.59 2.12 2.37 2.36 2.51 3.31 4.69 3.19 1.58 0.94 0.73 0.54 0.55 0.47 0.68 0.62 0.89 1.30 1.70 2.64 2.05 1.13 0.52 0.33 0.28 0.44 1.07 1.03 1.08 1.45 1.51 0.97 0.62 0.58 0.60 0.64 0.62 0.62 0.35
2.86 2.95 2.53 1.92 1.93 1.77 1.54 1.37 1.36 1.58 1.60 1.40 1.23 1.16 1.37 1.92 2.58 2.96 2.52 2.37 2.49 3.32 2.72 1.29 1.02 0.87 0.82 0.77 0.52 0.58 0.85 1.25 2.02 2.48 2.35 1.36 0.55 0.56 0.36 0.31 0.59 0.35 0.46 0.94 1.35 1.35 1.65 1.17 1.31 1.03 0.88 0.50 0.32 0.19
2.68 2.69 2.33 1.93 1.68 1.53 1.25 1.14 1.25 1.45 1.52 1.46 1.43 1.50 1.88 2.37 3.03 5.16 6.28 3.35 2.14 2.49 3.94 2.10 1.26 1.06 1.13 1.02 0.76 0.49 0.74 1.51 2.58 2.71 1.55 0.66 0.34 1.19 1.33 0.40 0.10 0.02 0.15 0.47 0.50 0.63 1.02 1.30 0.90 0.46 0.49 0.51 0.29 0.12
2.55 2.50 2.25 1.91 1.59 1.41 1.25 1.21 1.40 1.55 1.60 1.68 1.85 2.30 2.61 3.08 4.18 5.44 3.85 2.42 1.65 2.66 5.32 3.18 1.54 1.36 1.40 1.18 1.04 0.81 0.81 1.15 1.77 2.51 1.60 0.51 0.30 1.33 1.28 0.35 0.07 0.01 0.05 0.12 0.16 0.39 0.51 0.37 0.36 0.23 0.22 0.31 0.22 0.21
2.54 2.26 2.16 2.07 1.46 1.23 1.23 1.30 1.46 1.53 1.55 1.77 1.99 2.41 2.94 4.26 4.88 3.59 2.13 1.85 1.55 2.64 3.54 3.26 1.96 1.89 1.79 1.41 1.26 0.84 0.96 1.29 1.46 1.45 1.09 0.80 0.66 1.08 0.96 0.11 0.00 0.00 0.02 0.05 0.08 0.15 0.29 0.20 0.14 0.15 0.12 0.15 0.15 0.14
2.56 2.11 1.82 1.81 1.39 1.21 1.05 1.07 1.24 1.45 1.71 2.34 3.16 4.49 6.41 6.36 4.83 3.02 2.87 2.98 2.48 2.96 3.17 1.94 1.78 2.27 2.34 1.86 1.48 1.57 1.38 1.61 1.15 0.98 0.55 0.93 1.01 1.02 0.32 0.06 0.03 0.04 0.17 0.23 0.15 0.08 0.07 0.11 0.13 0.14 0.12 0.16 0.20 0.13
1.91 1.63 1.55 1.66 1.55 1.22 1.03 0.96 1.28 1.96 2.82 4.36 6.59 7.99 7.71 4.23 2.24 2.93 5.07 5.59 4.83 3.54 2.41 1.26 1.16 2.03 2.34 2.44 2.10 2.21 1.98 1.27 1.15 0.44 0.53 0.95 0.59 0.27 0.17 0.23 0.19 0.24 0.22 0.20 0.31 0.15 0.10 0.15 0.15 0.16 0.17 0.19 0.21 0.16
1.72 1.54 1.57 1.72 1.71 1.40 1.20 1.20 1.66 3.00 5.13 6.29 5.70 4.29 3.34 2.69 2.66 3.75 4.33 3.61 2.55 1.71 0.86 0.42 0.49 1.34 1.88 2.27 2.07 1.99 2.44 1.58 1.13 0.51 0.89 0.87 0.70 0.49 0.41 0.42 0.31 0.29 0.25 0.19 0.18 0.12 0.17 0.42 0.41 0.23 0.14 0.13 0.19 0.17
1.73 1.55 1.52 1.73 1.78 1.58 1.43 1.37 1.87 2.81 3.63 3.07 2.52 2.70 3.25 3.24 3.11 2.75 2.38 1.71 0.93 0.42 0.30 0.41 0.62 1.15 1.95 2.33 2.61 2.28 1.86 1.88 1.02 0.79 1.51 1.15 0.86 0.30 0.19 0.17 0.17 0.21 0.17 0.24 0.30 0.40 0.29 0.29 0.33 0.28 0.23 0.24 0.22 0.27
1.79 1.67 1.74 1.94 1.83 1.77 1.64 1.52 1.32 1.68 2.13 2.62 2.75 3.29 3.23 3.04 2.41 1.66 1.00 0.61 0.57 0.51 0.48 0.85 1.49 1.63 1.93 2.41 2.79 2.11 1.70 1.19 1.00 1.25 0.99 0.99 0.40 0.16 0.12 0.11 0.09 0.15 0.31 0.31 0.27 0.25 0.27 0.24 0.23 0.26 0.24 0.28 0.33 0.46
1.68 1.63 1.70 1.96 1.97 1.88 1.72 1.57 1.62 2.36 2.62 3.26 3.30 3.06 2.35 1.85 1.16 0.69 0.38 0.51 0.66 0.52 0.38 0.72 1.72 2.00 1.71 2.15 1.86 1.94 1.74 1.21 1.46 1.14 1.22 0.68 0.25 0.18 0.19 0.14 0.11 0.21 0.28 0.56 0.41 0.20 0.20 0.28 0.31 0.41 0.47 0.52 0.52 0.61
1.26 1.35 1.76 1.96 1.97 1.88 1.55 1.46 1.75 1.64 1.83 2.33 1.58 1.50 1.20 0.90 0.72 0.67 0.43 0.30 0.30 0.27 0.39 1.06 1.51 1.88 2.07 2.21 1.55 1.43 1.82 1.76 1.50 1.47 1.33 0.77 0.31 0.19 0.18 0.20 0.24 0.39 0.47 0.48 0.69 0.69 0.58 0.54 0.53 0.66 0.70 0.69 0.56 0.60
1.17 1.91 2.21 1.98 1.90 1.74 1.58 1.89 1.73 1.48 1.37 1.14 1.00 1.07 0.87 0.72 0.86 0.68 0.54 0.52 0.47 0.56 0.76 1.30 1.95 1.77 2.22 1.69 1.88 1.51 1.38 1.35 1.55 1.05 0.73 0.47 0.41 0.37 0.37 0.45 0.50 0.67 0.78 0.99 1.08 1.04 1.07 0.90 0.74 0.84 0.91 0.80 0.80 0.69
1.31 1.89 1.73 1.45 1.59 1.77 1.68 1.97 1.62 1.64 1.32 0.80 0.87 0.83 0.68 0.71 0.91 0.78 0.66 0.65 0.61 0.80 1.02 1.18 1.47 1.39 1.40 1.09 0.98 0.90 1.06 1.02 0.70 0.55 0.59 0.56 0.51 0.51 0.56 0.59 0.67 0.70 0.64 0.71 0.79 0.79 0.96 0.88 0.75 0.65 0.71 0.85 0.76 0.76
1.16 1.10 1.20 1.33 2.15 1.98 1.67 1.34 1.15 0.93 0.72 0.82 0.90 1.08 0.62 0.77 0.75 0.63 0.57 0.58 0.70 0.76 0.68 0.83 0.89 0.71 0.78 0.76 0.95 1.05 0.92 0.90 0.85 0.74 0.72 0.71 0.63 0.70 0.65 0.63 0.71 0.68 0.65 0.69 0.66 0.62 0.60 0.59 0.59 0.66 0.61 0.61 0.60 0.70
1.38 1.12 1.12 1.22 1.10 1.00 1.44 1.07 0.58 0.50 0.68 0.88 1.15 0.98 0.72 0.84 0.87 0.81 0.62 0.55 0.61 0.65 0.75 0.74 0.78 0.74 0.83 0.98 1.02 0.95 0.87 0.74 0.81 0.97 1.12 1.18 1.02 0.87 0.84 0.71 0.66 0.73 0.71 0.74 0.74 0.73 0.65 0.57 0.58 0.54 0.49 0.50 0.56 0.67
1.86 1.86 1.36 1.03 0.80 1.04 0.81 0.62 0.35 0.32 0.59 0.77 0.92 0.82 0.67 0.97 0.84 0.68 0.52 0.44 0.44 0.82 1.25 1.11 1.13 1.26 1.29 1.28 1.07 0.97 0.97 0.94 0.75 0.89 1.32 1.31 1.23 1.00 1.04 0.81 0.76 0.65 0.56 0.57 0.63 0.58 0.47 0.47 0.51 0.50 0.51 0.53 0.51 0.54
2.31 2.62 2.08 1.31 0.95 0.77 0.77 0.72 0.57 0.39 0.44 0.63 0.82 0.53 0.73 0.54 0.52 0.48 0.40 0.30 0.54 0.92 1.08 1.25 1.37 1.71 1.64 1.33 1.12 0.86 0.94 0.80 0.95 0.81 0.93 1.12 1.16 0.70 0.77 0.75 0.62 0.54 0.48 0.49 0.47 0.58 0.48 0.45 0.49 0.46 0.43 0.48 0.43 0.36
2.06 1.84 1.86 1.00 0.65 0.36 0.37 0.39 0.34 0.39 0.40 0.63 0.61 0.43 0.58 0.60 0.55 0.50 0.28 0.41 0.89 1.19 1.41 1.41 1.32 1.31 1.10 1.15 1.23 1.08 1.09 0.79 0.73 0.69 0.69 0.56 0.73 0.65 0.65 0.68 0.51 0.55 0.53 0.55 0.45 0.49 0.47 0.37 0.33 0.33 0.31 0.31 0.29 0.29
1.14 0.95 0.80 0.91 0.69 0.38 0.51 0.53 0.46 0.55 0.52 0.62 0.44 0.39 0.47 0.48 0.51 0.23 0.43 0.68 0.99 1.30 1.43 1.23 1.21 1.13 0.99 1.14 0.71 0.78 0.91 0.52 0.54 0.60 0.61 0.55 0.54 0.55 0.46 0.55 0.56 0.50 0.47 0.49 0.41 0.37 0.34 0.31 0.27 0.26 0.26 0.23 0.27 0.33
0.81 1.12 0.88 0.63 0.54 0.47 0.25 0.24 0.29 0.35 0.39 0.35 0.33 0.42 0.50 0.52 0.31 0.27 0.47 0.70 1.09 0.94 0.81 0.90 0.79 0.82 0.67 0.54 0.61 0.74 0.94 0.64 0.44 0.51 0.59 0.44 0.37 0.53 0.41 0.41 0.44 0.42 0.36 0.35 0.30 0.30 0.29 0.28 0.23 0.23 0.26 0.35 0.37 0.39
1.69 1.13 0.61 0.47 0.27 0.27 0.17 0.15 0.16 0.17 0.28 0.22 0.25 0.37 0.48 0.33 0.24 0.30 0.41 0.71 0.66 0.73 0.80 0.81 0.70 0.65 0.67 0.70 0.66 0.64 0.67 0.59 0.47 0.35 0.57 0.52 0.45 0.48 0.47 0.39 0.33 0.30 0.25 0.34 0.39 0.41 0.34 0.32 0.34 0.34 0.31 0.31 0.30 0.28
1.34 0.44 0.21 0.18 0.20 0.13 0.10 0.13 0.14 0.16 0.18 0.22 0.25 0.28 0.22 0.20 0.20 0.24 0.36 0.57 0.54 0.61 0.79 0.85 0.83 0.65 0.62 0.61 0.57 0.55 0.60 0.49 0.40 0.35 0.46 0.42 0.43 0.45 0.47 0.41 0.36 0.32 0.24 0.29 0.39 0.42 0.39 0.31 0.31 0.29 0.28 0.23 0.24 0.33
0.62 0.27 0.12 0.06 0.13 0.15 0.15 0.13 0.12 0.18 0.23 0.24 0.25 0.23 0.26 0.28 0.22 0.43 0.58 0.61 0.57 0.69 0.61 0.52 0.43 0.41 0.48 0.53 0.51 0.50 0.37 0.30 0.33 0.32 0.24 0.19 0.16 0.19 0.32 0.47 0.50 0.41 0.29 0.35 0.43 0.48 0.52 0.47 0.42 0.37 0.39 0.41 0.40 0.43
0.22 0.05 0.09 0.12 0.13 0.18 0.27 0.23 0.19 0.21 0.22 0.21 0.23 0.21 0.29 0.23 0.41 0.58 0.62 0.63 0.47 0.37 0.31 0.32 0.30 0.27 0.28 0.31 0.34 0.34 0.35 0.32 0.25 0.18 0.15 0.20 0.21 0.21 0.20 0.27 0.32 0.31 0.31 0.36 0.38 0.43 0.48 0.50 0.49 0.50 0.53 0.54 0.48 0.44
0.14 0.08 0.07 0.10 0.18 0.25 0.29 0.25 0.28 0.29 0.27 0.29 0.34 0.32 0.31 0.46 0.76 0.64 0.62 0.47 0.37 0.28 0.30 0.33 0.46 0.32 0.27 0.26 0.28 0.29 0.28 0.31 0.36 0.33 0.24 0.30 0.37 0.38 0.27 0.28 0.30 0.34 0.33 0.35 0.37 0.41 0.43 0.49 0.49 0.53 0.56 0.59 0.59 0.63
0.14 0.17 0.22 0.15 0.21 0.33 0.47 0.36 0.39 0.35 0.23 0.20 0.22 0.24 0.24 0.50 0.77 0.55 0.38 0.33 0.30 0.36 0.39 0.35 0.36 0.29 0.33 0.33 0.36 0.33 0.33 0.28 0.32 0.44 0.42 0.32 0.33 0.33 0.29 0.33 0.36 0.37 0.41 0.48 0.47 0.46 0.49 0.47 0.53 0.65 0.63 0.65 0.70 0.71
0.16 0.18 0.20 0.21 0.29 0.31 0.29 0.25 0.21 0.17 0.15 0.14 0.12 0.18 0.28 0.42 0.49 0.35 0.37 0.45 0.37 0.37 0.35 0.36 0.38 0.42 0.36 0.30 0.31 0.30 0.32 0.29 0.23 0.24 0.28 0.33 0.34 0.34 0.32 0.30 0.31 0.35 0.41 0.47 0.44 0.45 0.45 0.48 0.53 0.54 0.51 0.48 0.47 0.47
0.13 0.13 0.16 0.21 0.29 0.26 0.29 0.41 0.32 0.28 0.26 0.18 0.23 0.22 0.28 0.30 0.48 0.58 0.40 0.44 0.37 0.39 0.47 0.39 0.34 0.39 0.32 0.27 0.30 0.29 0.32 0.30 0.22 0.24 0.30 0.34 0.35 0.32 0.30 0.29 0.30 0.34 0.36 0.37 0.39 0.40 0.38 0.42 0.46 0.41 0.43 0.41 0.41 0.39
0.26 0.24 0.23 0.34 0.41 0.30 0.29 0.38 0.35 0.30 0.21 0.21 0.26 0.23 0.26 0.34 0.59 0.64 0.43 0.40 0.49 0.47 0.45 0.44 0.43 0.42 0.39 0.33 0.35 0.34 0.27 0.24 0.23 0.24 0.29 0.32 0.34 0.36 0.42 0.41 0.38 0.34 0.35 0.37 0.39 0.42 0.44 0.44 0.45 0.43 0.42 0.41 0.38 0.35